Terug naar catalogus

STARLINK-2257

ActiefCommunicatieVLEO
NORAD 47787·PAYLOAD·🇺🇸 United States

Gelanceerd Mar 11, 2021 vanaf Cape Canaveral Space Force Station

Loading…

Volgende Passages (komende 24 uur)

TLE

VersSource: CelesTrak SupGP

Epoch: Sep 15, 2026, 01:54 UTC

1 47787C 21018A   26258.07965278 -.00003635  00000+0 -11688-3 0  2585
2 47787  53.1564  84.3191 0001095  83.8845 260.3913 15.31705351    12

Volg STARLINK-2257 in realtime met AllMySat

Download on the App Store